Location: Archamps
(46.1365°N, 6.1329°E)
Time: 09:35:12
(UTC+00:00)

CZ-6A DEB - Pass Details

Date: 24 February 2024
Orbit: 823 x 884 km, 98.8° (Epoch: 12 April)

Event Time Altitude Azimuth Distance (km) Brightness Sun altitude
Rises 17:41:26 0° 191° (S) 3,468 ? -5.5°
Reaches altitude 10° 17:44:03 10° 200° (SSW) 2,529 ? -6.0°
Maximum altitude 17:49:06 33° 264° (W) 1,420 ? -6.9°
Drops below altitude 10° 17:54:08 10° 328° (NNW) 2,514 ? -7.7°
Sets 17:56:45 0° 338° (NNW) 3,446 ? -8.2°
